Weather in Karalda

Russia / Kemerovo Oblast     54°23′25″N   86°59′08″E
temp.,
°C
wind,
m/s
gust,
m/s
humid.,
%
clouds,
%
prec.,
mm/h
press.,
hPa
HPBL,
m
1 december, wed
wed101:00−11sse26876 0.0 103075
04:00−13sse35916 0.0 103064
07:00−13sse359170 0.0 103170
10:00−14sse229378 0.0 103240
13:00−6sse378272 0.0 1031227
16:00−6se2488100 0.0 103162
19:00−9sse378812 0.0 1030100
22:00−12sse229284 0.0 103030
2 december, thu
thu201:00−12sse249090 0.0 103056
04:00−13sse2390100 0.0 103037
07:00−13sse2291100 0.0 102930
10:00−12sse2291100 0.0 102936
13:00−5sse2782100 0.0 1027160
16:00−7se22896 0.0 102625
19:00−11se229027 0.0 102618
22:00−11se229141 0.0 102520
3 december, fri
fri301:00−10se24886 0.0 102355
04:00−10sse36865 0.0 102173
07:00−10sse36828 0.0 101978
10:00−10se378018 0.0 101789
13:00−3s4146972 0.0 1015255
16:00+1ssw61664100 0.0 1014610
19:000ssw51277100 0.1 1014626
22:00−1ssw41198100 3.4 1015635
4 december, sat
sat401:00−1ssw41098100 8.0 1015574
04:00−1sw41197100 2.7 1016575
07:000wsw5109399 4.0 1018967
10:00−3sw61387100 0.0 1021740
13:00−3sw61190100 0.1 1023951
16:00−5wsw51188100 0.1 1026812
19:00−6sw51190100 0.2 1028615
22:00−9sw4119289 0.0 1031359
5 december, sun
sun501:00−12ssw3995100 0.1 1034208
04:00−11s389599 0.0 1035208
07:00−13sse269799 0.0 1035105
10:00−13sse269763 0.0 1034139
13:00−9sse389463 0.0 1032247
16:00−9sse26945 0.0 1030123
19:00−13sse239867 0.0 102939
22:00−12sse259747 0.0 102757